Wadesboro, NC

12:03 PM EDT on March 24, 2017 (GMT -0400)
Anson County

Weather History for KAFP - November, 2012

Change the Weather History Date:

Thursday, November 29, 2012

  Actual Average (KCLT) Record (KCLT)
Temperature  
Mean Temperature 40 °F -  
Max Temperature 55 °F 57 °F 76 °F (2001)
Min Temperature 24 °F 36 °F 20 °F (1955)
Degree Days  
Heating Degree Days 26    
Moisture  
Dew Point 30 °F    
Average Humidity 76    
Maximum Humidity 100    
Minimum Humidity 41    
Precipitation  
Precipitation 0.00 in - - ()
Sea Level Pressure  
Sea Level Pressure 30.42 in    
Wind  
Wind Speed 1 mph (SSW)    
Max Wind Speed 8 mph    
Max Gust Speed -    
Visibility 9 miles    
Events      
Averages and records for this station are not official NWS values.
T = Trace of Precipitation, MM = Missing Value Source: NWS Daily Summary

Daily Weather History Graph

Daily Weather History Graph

Search for Another Location

Airport or City:

Trip Planner

Search our weather history database for the weather conditions in past years. The results will help you decide how hot, cold, wet, or windy it might be!

Date:

Astronomy

Nov. 29, 2012 Rise Set
Actual Time 7:08 AM EST 5:08 PM EST
Civil Twilight 6:40 AM EST 5:36 PM EST
Nautical Twilight 6:09 AM EST 6:07 PM EST
Astronomical Twilight 5:39 AM EST 6:38 PM EST
Moon 6:10 PM EST (11/29) 7:53 AM EST (11/29)
Length of Visible Light 10h 55m
Length of Day
10h 00m
Full, 99% of the Moon is Illuminated
Nov 29
Full
Dec 6
Last Quarter
Dec 13
New
Dec 20
First Quarter
Dec 28
Full

Hourly Weather History & Observations

Time (EST) Temp. Dew Point Humidity Pressure Visibility Wind Dir Wind Speed Gust Speed Precip Events Conditions
12:15 AM 28.4 °F 26.6 °F 93% 30.40 in 10.0 mi Calm Calm - N/A   Clear
12:35 AM 28.4 °F 26.6 °F 93% 30.41 in 10.0 mi Calm Calm - N/A   Clear
12:55 AM 30.2 °F 28.4 °F 93% 30.39 in 4.0 mi Calm Calm - N/A   Clear
1:15 AM 30.2 °F 28.4 °F 93% 30.39 in 7.0 mi Calm Calm - N/A   Clear
1:35 AM 28.4 °F 28.4 °F 100% 30.41 in 5.0 mi Calm Calm - N/A   Clear
1:55 AM 28.4 °F 26.6 °F 93% 30.42 in 7.0 mi Calm Calm - N/A   Clear
2:15 AM 26.6 °F 24.8 °F 93% 30.42 in 10.0 mi Calm Calm - N/A   Clear
2:35 AM 28.4 °F 26.6 °F 93% 30.42 in 7.0 mi Calm Calm - N/A   Clear
2:55 AM 28.4 °F 26.6 °F 93% 30.42 in 7.0 mi Calm Calm - N/A   Clear
3:15 AM 28.4 °F 26.6 °F 93% 30.42 in 7.0 mi Calm Calm - N/A   Clear
3:35 AM 26.6 °F 24.8 °F 93% 30.42 in 10.0 mi Calm Calm - N/A   Clear
3:55 AM 26.6 °F 23.0 °F 86% 30.41 in 7.0 mi Calm Calm - N/A   Clear
4:15 AM 26.6 °F 23.0 °F 86% 30.41 in 7.0 mi Calm Calm - N/A   Clear
4:35 AM 26.6 °F 24.8 °F 93% 30.42 in 10.0 mi Calm Calm - N/A   Clear
4:55 AM 26.6 °F 23.0 °F 86% 30.42 in 10.0 mi Calm Calm - N/A   Clear
5:15 AM 26.6 °F 23.0 °F 86% 30.42 in 10.0 mi Calm Calm - N/A   Clear
5:35 AM 26.6 °F 23.0 °F 86% 30.42 in 10.0 mi Calm Calm - N/A   Clear
5:55 AM 26.6 °F 23.0 °F 86% 30.43 in 10.0 mi Calm Calm - N/A   Clear
6:15 AM 26.6 °F 23.0 °F 86% 30.43 in 7.0 mi Calm Calm - N/A   Clear
6:35 AM 24.8 °F 23.0 °F 93% 30.44 in 10.0 mi Calm Calm - N/A   Clear
6:55 AM 26.6 °F 23.0 °F 86% 30.45 in 10.0 mi Calm Calm - N/A   Clear
7:15 AM 26.6 °F 23.0 °F 86% 30.44 in 10.0 mi Calm Calm - N/A   Clear
7:35 AM 26.6 °F 23.0 °F 86% 30.45 in 10.0 mi Calm Calm - N/A   Clear
7:55 AM 28.4 °F 24.8 °F 86% 30.46 in 7.0 mi Calm Calm - N/A   Clear
8:15 AM 28.4 °F 26.6 °F 93% 30.46 in 5.0 mi Calm Calm - N/A   Clear
8:35 AM 30.2 °F 28.4 °F 93% 30.47 in 5.0 mi Calm Calm - N/A   Clear
8:55 AM 32.0 °F 30.2 °F 93% 30.48 in 7.0 mi Calm Calm - N/A   Clear
9:15 AM 33.8 °F 32.0 °F 93% 30.49 in 10.0 mi Calm Calm - N/A   Clear
9:35 AM 35.6 °F 32.0 °F 87% 30.49 in 10.0 mi Calm Calm - N/A   Clear
9:55 AM 37.4 °F 33.8 °F 87% 30.49 in 10.0 mi Calm Calm - N/A   Clear
10:15 AM 41.0 °F 33.8 °F 76% 30.49 in 10.0 mi Calm Calm - N/A   Clear
10:35 AM 44.6 °F 32.0 °F 61% 30.49 in 10.0 mi Calm Calm - N/A   Clear
10:55 AM 48.2 °F 32.0 °F 54% 30.48 in 10.0 mi SSE 4.6 mph - N/A   Clear
11:15 AM 50.0 °F 30.2 °F 47% 30.48 in 10.0 mi Calm Calm - N/A   Clear
11:35 AM 51.8 °F 32.0 °F 47% 30.47 in 10.0 mi Calm Calm - N/A   Clear
11:55 AM 51.8 °F 32.0 °F 47% 30.46 in 10.0 mi South 3.5 mph - N/A   Clear
12:15 PM 53.6 °F 32.0 °F 44% 30.45 in 10.0 mi WSW 5.8 mph - N/A   Clear
12:35 PM 53.6 °F 32.0 °F 44% 30.44 in 10.0 mi South 5.8 mph - N/A   Clear
12:55 PM 53.6 °F 32.0 °F 44% 30.43 in 10.0 mi SW 6.9 mph - N/A   Clear
1:15 PM 55.4 °F 32.0 °F 41% 30.42 in 10.0 mi SSW 5.8 mph - N/A   Clear
1:35 PM 55.4 °F 32.0 °F 41% 30.41 in 10.0 mi South 5.8 mph - N/A   Clear
1:55 PM 55.4 °F 32.0 °F 41% 30.40 in 10.0 mi SW 8.1 mph - N/A   Clear
2:15 PM 55.4 °F 32.0 °F 41% 30.39 in 10.0 mi SSE 4.6 mph - N/A   Clear
2:35 PM 55.4 °F 32.0 °F 41% 30.39 in 10.0 mi South 3.5 mph - N/A   Clear
2:55 PM 55.4 °F 32.0 °F 41% 30.38 in 10.0 mi Calm Calm - N/A   Clear
3:15 PM 55.4 °F 32.0 °F 41% 30.38 in 10.0 mi Calm Calm - N/A   Clear
3:35 PM 55.4 °F 32.0 °F 41% 30.38 in 10.0 mi South 3.5 mph - N/A   Clear
3:55 PM 55.4 °F 32.0 °F 41% 30.38 in 10.0 mi SW 3.5 mph - N/A   Clear
4:15 PM 55.4 °F 32.0 °F 41% 30.37 in 10.0 mi SSW 3.5 mph - N/A   Clear
4:35 PM 53.6 °F 32.0 °F 44% 30.38 in 10.0 mi Calm Calm - N/A   Clear
4:55 PM 53.6 °F 32.0 °F 44% 30.37 in 10.0 mi Calm Calm - N/A   Clear
5:15 PM 48.2 °F 33.8 °F 58% 30.37 in 10.0 mi Calm Calm - N/A   Clear
5:35 PM 44.6 °F 33.8 °F 66% 30.37 in 10.0 mi Calm Calm - N/A   Clear
5:55 PM 42.8 °F 35.6 °F 76% 30.38 in 10.0 mi Calm Calm - N/A   Clear
6:15 PM 41.0 °F 33.8 °F 76% 30.38 in 10.0 mi Calm Calm - N/A   Clear
6:35 PM 41.0 °F 33.8 °F 76% 30.39 in 10.0 mi Calm Calm - N/A   Clear
6:55 PM 39.2 °F 35.6 °F 87% 30.39 in 10.0 mi Calm Calm - N/A   Clear
7:15 PM 37.4 °F 33.8 °F 87% 30.39 in 10.0 mi Calm Calm - N/A   Clear
7:35 PM 37.4 °F 33.8 °F 87% 30.41 in 10.0 mi Calm Calm - N/A   Clear
7:55 PM 37.4 °F 33.8 °F 87% 30.41 in 10.0 mi Calm Calm - N/A   Clear
8:15 PM 35.6 °F 32.0 °F 87% 30.41 in 10.0 mi Calm Calm - N/A   Clear
8:35 PM 35.6 °F 33.8 °F 93% 30.41 in 10.0 mi Calm Calm - N/A   Clear
8:55 PM 33.8 °F 32.0 °F 93% 30.42 in 7.0 mi Calm Calm - N/A   Clear
9:15 PM 33.8 °F 32.0 °F 93% 30.41 in 7.0 mi Calm Calm - N/A   Clear
9:35 PM 33.8 °F 32.0 °F 93% 30.41 in 7.0 mi Calm Calm - N/A   Clear
9:55 PM 32.0 °F 32.0 °F 100% 30.41 in 7.0 mi Calm Calm - N/A   Clear
10:15 PM 32.0 °F 32.0 °F 100% 30.41 in 10.0 mi Calm Calm - N/A   Clear
10:35 PM 32.0 °F 30.2 °F 93% 30.41 in 10.0 mi Calm Calm - N/A   Clear
10:55 PM 32.0 °F 30.2 °F 93% 30.41 in 7.0 mi Calm Calm - N/A   Clear
11:15 PM 32.0 °F 30.2 °F 93% 30.41 in 7.0 mi Calm Calm - N/A   Clear
11:35 PM 32.0 °F 30.2 °F 93% 30.41 in 10.0 mi Calm Calm - N/A   Clear
11:55 PM 30.2 °F 28.4 °F 93% 30.41 in 10.0 mi Calm Calm - N/A   Clear